Regional Weather Roundup
Issued by NWS

Home | Current Version | Previous Version | Text Only | Print | Product List | Glossary On
Versions: 1 2 3 4 5 6 7 8 9 10 11 12 13 14 15 16 17 18 19 20 21 22 23 24 25 26 27 28
000
ASPQ40 PGUM 210112
RWRPQ
WEATHER ROUNDUP FOR THE MARIANAS AND MICRONESIA
NATIONAL WEATHER SERVICE TIYAN GU
1100 AM CHST MON AUG 21 2017

GUZ001>004-210200-
MARIANA ISLANDS-

CITY           SKY/WX    TMP DP  RH WIND       PRES   REMARKS
GUAM AIRPORT   PTSUNNY   84  77  79 NW5       29.87R HX  94
ANDERSEN AFB   PTSUNNY   82  73  74 NE8       29.92R
ROTA AIRPORT   PTSUNNY   81  75  83 E9        29.85S
TINIAN AP      PTSUNNY   86  75  70 E12       29.81S HX  95
SAIPAN AP      MOSUNNY   90  77  66 SE13      29.81F HX 102

$$

PMZ161-210200-
REPUBLIC OF PALAU-

CITY           SKY/WX    TMP DP  RH WIND       PRES   REMARKS
KOROR AP       CLOUDY    79  77  94 NE5       29.80F
KOROR WSO      PTSUNNY   84  79  84 SW8       29.81S HX  96

$$

PMZ171>174-210200-
FEDERATED STATES OF MICRONESIA-

CITY           SKY/WX    TMP DP  RH WIND       PRES   REMARKS
YAP AIRPORT    PTSUNNY   86  77  74 VRB6      29.81F HX  97
CHUUK AP       PTSUNNY   90  77  66 VRB5      29.80F HX 102
POHNPEI AP     CLOUDY    90  77  66 SW6       29.80F HX 102
POHNPEI WSO    MOSUNNY   86  79  79 W3        29.82F HX  99
KOSRAE AP      PTSUNNY   90  79  70 W9        29.78F HX 105

$$

PMZ181-210200-
REPUBLIC OF THE MARSHALL ISLANDS-

CITY           SKY/WX    TMP DP  RH WIND       PRES   REMARKS
KWAJALEIN AP   MOSUNNY   88  73  62 E6        29.81F HX  96
MAJURO AP      PTSUNNY   86  79  79 SE7       29.81F HX  99
MAJURO WSO     NOT AVBL

$$





USA.gov is the U.S. government's official web portal to all federal, state and local government web resources and services.